This is the latest recevied weather packets stored in our database for station/object KC5DAQ-29. If no packets are shown the sender has not sent any weather packets the latest 10 day(s).
| Time | Temp. | Humidity | Pressure | Rain* | Wind** | Luminosity | Snow |
|---|---|---|---|---|---|---|---|
| 1777502130 | 29.44° C | 100% | 1006.1 hPa | 0 mm | - | 568 W/m² | - |
| 1777502072 | 29.44° C | 100% | 1006.2 hPa | 0 mm | - | 568 W/m² | - |
| 1777502011 | 29.44° C | 100% | 1006.2 hPa | 0 mm | - | 568 W/m² | - |
| 1777501952 | 29.44° C | 100% | 1006.2 hPa | 0 mm | - | 568 W/m² | - |
| 1777501891 | 28.89° C | 100% | 1006.2 hPa | 0 mm | - | 656 W/m² | - |
| 1777501831 | 28.89° C | 100% | 1006.2 hPa | 0 mm | - | 656 W/m² | - |
| 1777501772 | 28.89° C | 100% | 1006.3 hPa | 0 mm | - | 617 W/m² | - |
| 1777501711 | 28.89° C | 100% | 1006.3 hPa | 0 mm | - | 550 W/m² | - |
| 1777501650 | 28.89° C | 100% | 1006.3 hPa | 0 mm | - | 450 W/m² | - |
| 1777501592 | 28.89° C | 100% | 1006.3 hPa | 0 mm | - | 450 W/m² | - |
| 1777501532 | 28.89° C | 100% | 1006.4 hPa | 0 mm | - | 208 W/m² | - |
| 1777501472 | 28.89° C | 100% | 1006.3 hPa | 0 mm | - | 208 W/m² | - |
| 1777501410 | 28.89° C | 100% | 1006.5 hPa | 0 mm | - | 208 W/m² | - |
| 1777501352 | 28.89° C | 100% | 1006.6 hPa | 0 mm | - | 208 W/m² | - |
| 1777501291 | 28.89° C | 100% | 1006.8 hPa | 0 mm | - | 208 W/m² | - |
| 1777501233 | 28.89° C | 100% | 1006.8 hPa | 0 mm | - | 208 W/m² | - |
| 1777501172 | 28.89° C | 100% | 1006.9 hPa | 0 mm | - | 208 W/m² | - |
| 1777501108 | 28.89° C | 100% | 1007 hPa | 0 mm | - | 208 W/m² | - |
| 1777501048 | 28.89° C | 100% | 1007.1 hPa | 0 mm | - | 195 W/m² | - |
| 1777500988 | 29.44° C | 100% | 1007.2 hPa | 0 mm | - | 195 W/m² | - |
| 1777500927 | 29.44° C | 100% | 1007.1 hPa | 0 mm | - | 195 W/m² | - |
| 1777500868 | 29.44° C | 100% | 1007.2 hPa | 0 mm | - | 195 W/m² | - |
| 1777500809 | 29.44° C | 100% | 1007.1 hPa | 0 mm | - | 195 W/m² | - |
| 1777500748 | 29.44° C | 100% | 1007.1 hPa | 0 mm | - | 199 W/m² | - |
| 1777500688 | 29.44° C | 100% | 1007.1 hPa | 0 mm | - | 195 W/m² | - |
* Rain latest hour (hover to see other rain measurements)
** Current wind speed in m/s (hover to see current wind gust speed)